Location: Roanoke
(37.2710°N, 79.9420°W)
Time: 09:33:51
(UTC-05:00)

Courier 1B Rocket - Pass Details

Date: 25 November 2019
Orbit: 920 x 1202 km, 28.2° (Epoch: 04 December)

Event Time Altitude Azimuth Distance (km) Brightness Sun altitude
Rises 10:34:58 0° 200° (SSW) 3,544 8.6 28.1°
Reaches altitude 10° 10:39:56 10° 166° (SSE) 2,635 8.9 28.5°
Maximum altitude 10:41:32 11° 151° (SSE) 2,579 9.0 28.6°
Drops below altitude 10° 10:43:09 10° 136° (SE) 2,667 8.6 28.7°
Sets 10:48:18 0° 103° (ESE) 3,683 8.5 29.1°
